Wind_Speed
17 19 16 8 5 3 1 2 6 5 6 14 15 15 11 11 5 9 6 5 9 9 10 12 12 13 13 13 13 13 13 13 13 13 13 13 12 12 12 12 13 12 12 11 10 8 10 10 11
17 15 7 3 5 1 1 4 11 13 16 18 17 14 12 11 8 12 11 19 12 12 12 13 12 13 13 13 13 13 13 12 12 11 11 10 10 10 10 11 11 11 10 10 8 7 7 9 9
12 2 4 4 4 4 5 12 14 14 7 5 6 9 5 5 14 18 15 18 18 17 15 13 13 13 13 12 12 12 11 11 11 9 9 9 8 7 8 8 9 9 8 6 7 5 5 6 6
10 5 4 5 8 3 4 4 14 9 10 9 11 9 5 7 4 16 25 23 21 18 15 13 12 12 12 11 11 10 11 10 10 9 8 8 7 6 6 6 5 5 5 5 4 3 4 5 4
8 3 5 4 9 5 5 10 5 14 9 8 4 8 5 10 23 26 24 22 22 18 16 13 12 12 12 11 10 9 8 8 7 7 6 6 5 4 4 3 4 3 3 2 2 2 1 3 4
4 3 5 4 5 8 7 3 13 17 18 14 16 9 4 13 24 25 25 23 21 21 17 15 14 13 12 12 12 13 12 11 10 10 10 7 11 3 3 4 4 4 5 5 4 3 3 3 4
6 4 2 11 5 5 4 6 8 9 11 11 10 5 3 6 20 21 26 23 20 18 17 15 15 14 15 14 14 15 15 14 13 12 13 10 11 8 8 7 5 7 7 8 8 8 7 7 7
5 4 3 1 6 5 8 4 7 10 8 4 4 6 6 4 22 25 22 21 17 14 12 11 10 12 11 10 9 9 10 9 8 11 11 11 9 10 12 8 11 10 10 10 11 12 11 11 11
5 4 4 9 8 4 8 5 5 6 7 5 4 6 9 21 19 22 24 21 19 16 17 15 6 7 11 8 9 9 8 9 5 8 9 9 9 11 12 12 9 11 12 11 11 12 13 13 13
5 2 3 3 5 5 6 8 7 5 9 6 10 11 11 20 15 17 15 14 15 15 15 13 18 13 11 13 12 13 16 13 12 12 7 7 6 9 12 9 10 11 8 11 13 12 12 12 14
3 2 6 3 6 15 8 12 6 11 5 5 10 7 12 23 19 16 19 17 17 16 11 10 11 10 10 10 12 15 17 14 13 13 7 8 7 7 11 12 12 14 10 10 9 9 10 9 10
7 4 9 18 12 6 2 7 5 5 3 9 8 10 10 14 15 19 19 19 16 12 9 7 7 9 10 9 11 11 16 16 15 9 7 8 8 8 10 15 17 16 14 14 10 9 10 9 7
4 5 11 24 18 11 14 11 9 11 12 14 11 9 8 11 16 16 15 14 12 8 11 10 6 9 12 13 12 11 13 11 11 6 9 11 13 15 16 17 18 18 14 12 14 11 10 7 8
4 6 6 5 9 8 14 11 6 10 12 15 11 6 4 10 14 14 10 13 15 13 12 8 9 14 18 11 12 14 12 12 5 5 9 12 15 16 17 16 15 14 12 10 11 12 12 12 8
4 3 4 5 2 4 18 7 7 13 11 10 14 9 8 11 15 13 17 16 14 15 12 8 12 20 19 13 14 19 12 9 8 9 13 16 15 15 17 16 14 14 13 12 11 10 9 10 8
4 2 2 4 5 5 1 6 14 14 15 13 16 14 10 11 12 16 19 18 14 11 8 8 13 21 11 13 13 12 10 11 11 10 15 18 17 15 16 18 17 15 15 12 11 10 12 12 12
3 4 2 6 5 5 5 11 12 11 11 12 9 11 12 9 14 21 20 19 14 9 6 9 12 17 11 12 12 12 8 10 8 9 15 15 15 17 15 17 19 16 15 13 12 12 12 13 12
5 4 4 6 5 8 15 10 11 7 7 12 10 12 9 8 10 16 23 18 12 5 3 6 7 11 8 11 11 12 12 13 8 11 12 13 16 15 15 16 17 18 17 14 13 12 12 12 14
6 4 6 7 2 10 7 7 5 1 7 13 5 14 7 2 8 21 20 16 10 6 2 2 2 6 9 10 12 14 15 13 8 9 13 13 14 14 14 16 16 18 16 15 13 12 12 14 12
5 3 1 11 14 12 8 6 6 11 8 16 16 14 10 6 7 12 17 17 13 10 6 5 1 5 8 8 9 12 13 10 10 12 12 11 13 13 15 15 16 18 18 16 13 10 11 13 11
5 3 2 4 13 19 7 9 4 8 10 8 11 11 7 7 6 8 15 15 15 10 10 6 3 3 5 6 9 12 11 12 12 13 14 13 13 11 14 16 17 17 18 18 15 11 9 11 12
3 4 5 18 7 4 2 4 5 5 6 7 7 4 5 8 10 12 12 13 16 13 11 7 2 2 5 7 11 12 11 13 12 14 13 11 12 10 12 16 17 18 17 17 13 9 9 11 13
6 3 6 18 11 5 7 5 3 4 3 9 10 6 5 6 5 9 9 13 7 12 13 5 2 3 5 7 8 10 10 11 10 10 11 9 10 10 12 15 18 18 16 16 10 8 9 10 12
3 3 13 6 5 5 6 2 3 2 6 4 6 7 6 9 7 11 10 9 13 14 11 5 2 3 4 8 7 8 7 9 9 9 11 10 11 11 10 14 15 15 14 15 14 11 9 8 7
11 6 3 4 5 2 7 4 4 5 3 5 7 8 8 5 8 9 9 14 13 15 10 7 3 2 4 7 8 8 8 7 7 8 9 13 12 11 11 12 13 12 15 15 13 12 11 10 5
4 3 5 1 4 2 6 3 5 2 6 6 6 3 8 7 3 3 14 10 13 16 10 8 1 3 5 6 9 9 8 7 6 8 8 8 9 9 10 11 11 11 13 14 14 15 14 10 8
6 4 1 7 4 4 2 3 7 5 3 4 4 7 8 4 7 10 14 9 16 14 8 6 1 4 4 6 9 9 10 7 7 8 7 7 9 8 8 9 11 11 12 14 14 13 13 13 15
5 4 5 4 4 3 2 2 3 6 4 5 6 6 6 8 6 7 11 12 11 11 10 7 5 4 4 6 4 9 8 8 4 5 6 5 8 5 8 8 10 12 13 12 12 12 12 9 9
6 5 5 5 4 4 4 2 5 3 0 4 2 6 9 7 8 7 13 13 13 11 9 8 5 4 4 4 6 8 8 6 4 5 5 8 6 6 8 7 10 11 13 11 12 10 13 11 13
2 4 4 4 1 3 4 1 3 0 5 6 2 6 5 9 7 10 17 15 16 14 13 8 5 3 6 4 4 4 3 3 3 3 3 8 5 5 6 6 8 10 10 9 12 11 9 8 10
Wind_Direction
124 120 119 56 62 30 136 82 131 108 66 79 77 79 85 39 24 122 135 150 125 124 115 106 101 98 96 93 92 90 86 85 82 77 76 74 75 75 74 74 73 74 84 86 95 109 121 116 113
134 137 56 76 66 33 283 115 85 98 120 102 81 96 60 72 68 122 131 157 142 132 116 104 100 95 92 89 88 87 86 83 79 75 71 68 70 69 68 65 66 69 78 83 91 107 132 126 123
143 143 66 69 26 351 327 115 118 124 118 89 105 54 51 84 125 156 179 154 138 119 110 104 101 98 96 91 87 86 87 88 85 80 72 65 62 58 57 59 62 63 66 81 114 123 152 151 139
149 53 54 86 27 276 287 89 117 114 72 56 113 69 75 36 103 135 141 140 121 112 107 100 94 90 88 88 87 86 83 79 75 71 65 58 53 50 41 38 42 51 61 66 92 147 160 175 175
56 50 76 69 5 290 285 306 153 98 94 88 87 99 77 60 121 128 126 124 120 118 112 108 104 99 96 90 82 78 75 70 66 66 60 52 40 30 25 14 359 348 354 23 34 47 175 212 226
54 79 68 79 186 265 284 292 92 94 100 94 85 94 54 136 126 123 119 116 114 109 104 97 88 86 85 80 73 67 62 59 55 47 36 37 21 354 346 329 306 302 304 303 298 295 292 277 260
101 71 142 140 219 297 230 188 70 120 94 73 126 93 96 106 129 123 118 114 108 102 97 89 84 79 80 77 76 69 59 50 53 45 37 33 33 28 346 310 289 304 290 289 287 279 276 275 277
94 101 135 192 182 237 153 92 65 52 79 74 14 143 139 110 120 119 118 112 108 100 93 87 84 72 65 62 56 45 40 37 45 34 17 9 16 15 8 330 321 307 302 300 289 283 273 268 268
123 68 182 176 169 211 151 109 55 58 98 60 26 73 92 117 121 114 115 114 107 94 80 67 74 63 35 31 31 12 355 343 349 21 5 357 355 351 350 13 335 317 310 306 287 279 273 273 272
72 52 256 152 164 108 75 103 117 101 96 79 94 67 91 133 138 120 119 113 106 90 85 68 64 68 52 42 24 24 14 22 17 11 33 33 4 339 339 345 10 355 338 307 292 293 285 280 281
40 335 297 83 89 96 91 66 102 115 56 130 135 115 103 112 111 100 93 120 121 111 81 56 40 40 20 3 351 356 12 13 3 3 356 0 2 347 331 338 338 350 356 17 358 290 286 289 281
131 345 49 50 69 102 88 113 90 73 109 116 111 100 103 101 105 108 102 111 116 109 97 68 43 34 31 19 8 353 353 2 357 13 19 15 14 356 342 343 340 335 334 326 339 336 330 267 290
110 125 93 128 156 131 121 118 104 91 105 105 95 92 100 109 122 118 118 110 97 90 90 80 54 22 11 359 356 355 355 353 0 15 28 13 5 356 342 329 324 325 332 322 311 323 323 328 277
69 82 95 118 163 128 110 121 81 128 132 118 114 113 125 139 144 134 132 135 107 113 112 91 34 13 4 8 1 351 340 346 55 43 27 9 357 353 354 339 320 323 341 330 314 313 311 308 291
93 43 234 339 192 107 115 86 99 145 143 139 136 151 177 179 160 171 153 140 147 117 120 70 23 355 352 12 36 27 33 66 65 34 12 10 12 4 359 354 346 330 333 329 330 322 315 290 289
77 76 291 203 183 107 10 90 146 160 165 161 171 164 182 197 192 169 162 152 142 127 99 44 16 2 9 11 6 16 28 42 22 17 8 5 1 0 355 350 345 337 333 332 323 332 329 332 306
53 267 211 316 84 114 71 135 173 181 175 175 164 193 177 198 164 163 160 156 144 125 74 31 12 10 359 352 1 3 25 6 6 11 4 360 356 354 349 350 347 337 326 325 327 325 330 314 308
211 235 238 225 86 73 87 128 173 197 191 190 178 214 179 177 162 155 157 152 138 135 52 15 356 11 357 350 357 8 15 30 28 9 357 357 354 353 342 342 340 343 338 322 316 308 302 290 298
185 213 221 75 11 59 110 167 208 302 264 222 200 100 166 223 153 162 160 145 156 168 171 283 10 9 358 2 3 2 0 358 351 345 4 355 353 352 350 351 350 346 337 343 328 314 297 292 301
198 184 327 87 110 85 113 99 32 45 46 97 106 164 174 171 178 164 166 166 177 184 216 169 46 21 0 355 353 348 347 347 346 355 350 348 350 350 354 349 348 350 347 337 334 323 301 295 300
224 170 146 143 95 130 93 56 31 78 97 120 156 159 175 169 172 193 184 182 186 207 201 172 145 12 7 355 343 346 348 350 346 351 344 344 344 347 356 353 348 346 341 332 321 314 311 300 306
330 250 253 130 117 172 198 142 29 109 122 151 188 197 217 194 183 214 208 182 196 212 198 167 187 8 24 354 355 350 348 334 335 333 333 334 334 339 350 350 352 351 349 344 333 309 303 296 290
238 221 93 109 109 103 7 82 212 183 190 202 231 227 238 227 233 210 195 195 205 183 189 192 206 18 5 1 356 341 346 330 330 331 331 330 343 343 348 347 354 358 1 4 352 335 307 301 286
260 42 101 95 98 56 304 115 308 5 293 201 218 239 240 220 201 168 213 150 162 178 186 166 147 358 13 8 351 344 325 331 337 333 334 339 351 351 353 347 0 6 14 5 16 24 7 331 310
49 52 2 2 36 86 325 42 250 304 328 267 219 223 221 170 160 181 166 161 173 182 175 178 208 28 6 7 337 310 292 320 338 343 334 336 339 344 347 351 359 5 6 5 12 2 2 2 1
47 140 148 218 145 150 351 14 283 278 320 26 73 153 140 176 195 202 170 170 181 181 175 191 326 328 318 325 329 308 302 307 340 337 340 352 342 343 346 352 2 8 15 12 6 12 16 13 24
327 19 50 102 57 87 311 345 303 286 270 117 140 150 184 183 188 172 177 177 177 176 175 201 295 274 309 341 334 336 332 319 306 331 339 330 342 337 341 356 12 16 12 4 354 11 25 52 48
57 286 23 15 113 116 144 320 281 330 301 197 214 221 203 209 192 197 181 167 173 187 194 197 236 262 318 335 340 350 357 1 336 337 345 351 349 332 349 4 16 16 10 15 18 28 28 51 33
353 16 51 108 96 136 152 287 236 125 81 110 238 207 207 208 196 188 182 186 195 193 203 207 244 259 337 342 346 357 10 33 33 22 14 14 28 3 4 15 11 25 30 25 31 27 38 46 54
353 346 109 110 119 92 124 276 22 220 124 116 175 213 211 203 180 184 183 187 188 193 197 216 240 249 309 309 338 360 24 15 330 45 49 42 33 24 351 350 8 19 17 15 21 34 47 32 56
Height
798 798 797 799 835 845 847 832 813 819 827 822 817 825 838 836 842 863 854 852 851 852 851 850 849 849 848 847 847 847 846 847 846 846 844 844 843 843 842 842 841 841 842 842 842 842 842 844 843
799 798 800 814 849 856 844 820 827 820 822 818 822 829 834 849 846 850 854 850 852 854 853 852 851 850 849 849 849 848 847 847 846 846 846 845 844 844 844 843 842 842 842 842 843 843 842 843 844
799 801 812 839 859 861 854 825 825 823 817 819 830 833 838 850 851 854 852 853 856 856 855 855 854 853 852 851 851 849 849 848 848 848 848 847 846 846 845 844 843 844 843 843 843 843 843 843 845
795 803 820 850 866 852 849 832 819 827 825 825 831 843 846 848 849 852 856 857 856 858 857 857 856 855 855 853 852 851 850 850 849 849 848 848 848 846 846 846 845 845 845 845 844 844 844 843 844
797 812 839 853 865 857 844 838 823 826 832 835 832 850 852 851 851 854 857 859 858 859 860 860 859 858 857 856 854 853 852 852 851 849 848 848 848 847 847 846 846 846 846 844 844 844 843 843 843
812 818 849 863 866 852 837 835 832 834 839 841 844 850 859 857 855 857 859 862 863 862 863 862 861 860 859 858 857 856 855 853 852 852 851 849 849 847 848 846 846 845 845 845 844 843 843 842 842
818 839 851 846 851 851 836 832 835 838 840 847 844 854 862 861 860 861 862 865 866 866 866 865 864 864 862 862 860 859 858 855 854 853 853 851 849 848 848 846 845 845 844 844 844 842 842 841 841
817 833 850 850 855 848 827 832 838 840 850 847 848 858 865 863 863 864 866 867 869 869 869 869 868 867 866 865 863 862 860 858 856 854 853 852 850 848 847 847 845 845 844 843 842 841 840 840 839
803 838 853 843 847 837 828 839 846 848 850 851 855 855 861 864 866 867 868 871 872 872 872 871 869 869 868 866 866 863 862 860 857 855 853 851 849 847 846 846 845 844 843 842 841 841 840 839 838
818 842 832 823 826 830 831 833 842 850 853 857 857 859 860 863 868 867 869 872 874 875 874 873 872 870 869 868 866 864 862 860 857 854 852 850 849 848 847 846 844 843 841 840 839 839 838 837 836
826 841 822 821 826 827 838 839 842 852 861 858 862 863 862 863 866 868 869 871 873 874 876 875 873 871 869 867 864 862 861 860 857 855 853 850 849 848 846 844 843 843 840 838 837 836 836 835 835
822 826 815 826 827 834 840 838 850 851 856 859 864 865 866 868 870 871 874 875 876 876 875 876 875 872 869 866 865 863 861 860 857 855 853 851 849 848 846 844 843 841 839 838 836 835 834 833 834
814 826 828 817 823 824 827 837 849 859 857 863 867 869 870 869 870 874 876 877 878 877 877 878 877 873 871 868 865 861 859 858 856 855 854 852 850 848 846 844 842 840 838 837 836 833 832 831 831
818 820 828 830 827 825 837 849 844 862 862 857 868 874 874 872 871 874 875 876 877 878 876 875 880 878 873 868 864 861 858 855 855 854 853 852 849 847 846 843 840 839 837 836 834 832 831 830 828
816 828 826 831 823 829 833 854 861 861 865 868 862 869 871 872 873 874 875 875 876 875 876 876 875 877 873 868 865 862 858 856 855 855 855 853 849 846 844 843 840 838 836 834 832 829 828 829 826
824 831 842 834 824 830 833 868 862 858 859 860 858 858 870 871 871 872 873 874 875 875 875 877 876 874 874 869 866 864 860 858 856 855 853 852 849 846 843 841 838 836 834 831 829 827 825 822 822
834 849 843 831 833 836 841 866 862 858 857 858 861 864 864 869 868 869 872 874 874 875 876 876 876 875 873 870 866 864 861 858 855 854 852 850 849 846 842 839 837 834 830 828 825 823 821 821 820
842 846 837 836 846 841 856 862 861 861 860 861 860 863 866 868 869 872 870 872 873 874 875 875 875 876 872 868 867 864 859 857 855 854 852 849 848 845 841 838 835 832 828 825 823 821 820 820 818
818 828 829 835 845 852 860 862 865 862 860 857 865 870 873 874 872 871 872 870 873 873 874 873 874 874 871 868 865 863 860 857 856 853 851 849 847 843 840 837 833 829 826 823 820 819 818 816 816
813 825 833 847 844 855 865 868 866 866 866 861 867 869 870 873 874 872 873 872 872 873 874 874 875 872 870 867 865 862 859 856 856 852 850 849 845 842 839 835 832 828 824 821 818 816 815 814 813
816 815 817 827 848 854 860 872 873 871 870 868 866 863 868 870 873 872 872 873 874 873 874 873 872 870 867 866 864 860 857 856 854 851 850 847 844 841 838 835 831 827 823 818 815 814 813 811 810
819 796 798 833 845 872 853 890 879 873 877 874 869 870 870 871 871 872 872 873 873 874 874 871 871 867 864 863 861 859 856 856 854 853 849 846 843 841 838 834 830 826 821 816 813 811 810 810 808
812 795 809 822 850 862 866 882 876 876 878 876 873 872 871 871 871 871 871 871 873 871 872 868 866 864 863 862 860 859 856 857 855 852 848 845 842 840 837 833 829 824 820 815 811 809 808 807 805
796 803 821 834 856 887 878 881 884 879 874 868 870 869 868 868 868 868 869 870 871 870 869 868 867 865 864 862 860 858 858 857 853 850 847 844 841 839 836 833 829 825 820 816 812 810 807 804 803
807 831 863 861 885 886 868 881 883 869 864 866 866 867 867 865 864 864 868 869 869 869 869 868 867 864 863 861 860 859 858 855 852 849 846 843 840 837 835 832 828 825 821 818 813 811 808 805 803
814 829 859 863 887 892 874 890 882 863 862 860 861 862 865 866 866 867 868 868 867 867 867 867 865 864 863 861 860 858 856 853 850 848 845 842 839 837 835 832 829 825 822 819 816 812 810 806 804
823 838 823 866 880 890 889 878 869 859 862 863 865 863 864 865 866 863 863 863 865 867 867 866 864 864 863 861 859 857 854 851 849 846 843 841 838 836 834 831 829 826 823 820 817 814 811 809 805
827 822 847 864 886 896 894 893 888 871 862 863 864 867 865 861 862 862 863 863 864 864 864 864 864 862 861 859 857 855 852 849 847 845 842 839 837 835 833 831 829 826 823 821 819 816 813 811 809
844 849 852 863 876 892 892 897 877 869 865 864 861 860 861 861 860 860 861 861 862 864 865 864 863 861 859 857 855 854 851 849 846 844 841 839 837 835 832 831 829 827 825 822 820 818 815 813 811
836 841 854 875 875 887 895 893 865 866 866 864 860 858 857 856 856 859 859 859 860 862 862 862 860 858 857 855 854 852 851 848 846 843 841 839 836 834 832 831 830 828 826 824 822 820 818 816 814